Location: Melbourne
(37.8170°S, 144.9670°E)
Time: 20:50:13
(UTC+11:00)

Explorer 11/Cluster Stage 4 - Visible Passes

Search period start: 31 October 2014 00:00
Search period end: 10 November 2014 00:00
Orbit: 468 x 1280 km, 28.8° (Epoch: 30 October)

Date Brightness Start Highest point End Pass type
(mag) Time Alt. Az. Time Alt. Az. Time Alt. Az.
31 Oct 9.7 05:22:33 10° NNE 05:24:04 11° NNE 05:25:34 10° NE visible
01 Nov 9.5 05:13:04 10° N 05:16:33 13° NNE 05:20:03 10° NE visible
02 Nov 9.4 05:04:31 10° N 05:09:01 16° NNE 05:13:35 10° ENE visible
03 Nov 9.2 04:56:18 10° NNW 05:01:28 18° NNE 05:06:46 10° ENE visible
04 Nov 9.1 04:48:31 11° NNW 04:53:54 21° NNE 04:59:45 10° ENE visible
05 Nov 8.9 04:41:35 14° NNW 04:46:20 24° NNE 04:52:36 10° ENE visible
06 Nov 8.7 04:34:36 17° NNW 04:38:45 26° NNE 04:45:20 10° ENE visible
07 Nov 8.5 04:27:34 20° NNW 04:31:11 29° NNE 04:37:58 10° ENE visible
08 Nov 9.4 02:38:10 10° NE 02:38:10 10° NE 02:38:14 10° NE visible
08 Nov 8.3 04:20:31 23° NNW 04:23:36 31° NNE 04:30:33 10° ENE visible
09 Nov 9.4 02:31:05 11° ENE 02:31:05 11° ENE 02:31:26 10° ENE visible
09 Nov 8.1 04:13:27 26° NNW 04:16:02 33° NNE 04:23:04 10° ENE visible
